| time (UTC) | temp F | wind direction | speed knots | gust knots | rain 1hr in | rain 24hr in | rain mn in | humidity % | barometer mb |
| 20260505114545 | 38 | 0 | 0.0 | 0.9 | 0.00 | 0.03 | 0.03 | 91 | 1011.9 |
| 20260505114034 | 38 | 0 | 0.0 | 0.9 | 0.00 | 0.03 | 0.03 | 91 | 1011.9 |
| 20260505113535 | 38 | 233 | 0.0 | 0.0 | 0.00 | 0.03 | 0.03 | 91 | 1011.9 |
| 20260505113101 | 38 | 0 | 0.0 | 0.0 | 0.00 | 0.03 | 0.03 | 91 | 1011.9 |
| 20260505112533 | 38 | 0 | 0.0 | 0.9 | 0.00 | 0.03 | 0.03 | 92 | 1011.9 |
| 20260505112033 | 38 | 0 | 0.0 | 0.9 | 0.00 | 0.03 | 0.03 | 92 | 1011.9 |
| 20260505111541 | 38 | 230 | 0.0 | 0.0 | 0.00 | 0.03 | 0.03 | 92 | 1012.0 |
| 20260505111032 | 38 | 0 | 0.0 | 0.0 | 0.00 | 0.03 | 0.03 | 91 | 1011.9 |
| 20260505110532 | 38 | 0 | 0.0 | 0.0 | 0.00 | 0.03 | 0.03 | 92 | 1012.0 |
| 20260505102033 | 38 | 0 | 0.0 | 0.9 | 0.00 | 0.03 | 0.03 | 92 | 1012.1 |
| 20260505101543 | 38 | 0 | 0.0 | 0.0 | 0.00 | 0.03 | 0.03 | 92 | 1012.1 |
| 20260505101036 | 38 | 0 | 0.0 | 0.0 | 0.00 | 0.03 | 0.03 | 91 | 1012.2 |
| 20260505100536 | 38 | 0 | 0.0 | 0.0 | 0.00 | 0.03 | 0.03 | 91 | 1012.1 |
| 20260505100045 | 38 | 0 | 0.0 | 0.9 | 0.00 | 0.03 | 0.03 | 91 | 1012.1 |
| 20260505095533 | 38 | 0 | 0.0 | 1.7 | 0.00 | 0.03 | 0.03 | 90 | 1012.1 |
| 20260505095033 | 39 | 0 | 0.0 | 1.7 | 0.00 | 0.03 | 0.03 | 89 | 1012.0 |
| 20260505094545 | 39 | 212 | 0.9 | 1.7 | 0.00 | 0.03 | 0.03 | 89 | 1012.2 |
| 20260505094034 | 38 | 241 | 0.0 | 0.9 | 0.00 | 0.03 | 0.03 | 89 | 1012.2 |
| 20260505093532 | 38 | 241 | 0.0 | 0.9 | 0.00 | 0.03 | 0.03 | 89 | 1012.2 |
| 20260505093050 | 38 | 241 | 0.9 | 0.9 | 0.01 | 0.03 | 0.03 | 88 | 1012.2 |
| 20260505092534 | 38 | 221 | 0.9 | 1.7 | 0.01 | 0.03 | 0.03 | 89 | 1012.3 |
| 20260505092034 | 38 | 242 | 0.9 | 1.7 | 0.01 | 0.03 | 0.03 | 90 | 1012.3 |
| 20260505091543 | 38 | 234 | 0.9 | 0.9 | 0.01 | 0.03 | 0.03 | 90 | 1012.3 |
| 20260505091029 | 38 | 244 | 0.0 | 0.9 | 0.01 | 0.03 | 0.03 | 91 | 1012.4 |
| 20260505090532 | 38 | 0 | 0.0 | 0.9 | 0.01 | 0.03 | 0.03 | 90 | 1012.4 |
| 20260505090045 | 38 | 244 | 0.0 | 0.9 | 0.02 | 0.03 | 0.03 | 90 | 1012.3 |
| 20260505085532 | 38 | 242 | 0.0 | 0.9 | 0.02 | 0.03 | 0.03 | 90 | 1012.4 |
| 20260505085036 | 38 | 0 | 0.0 | 0.0 | 0.02 | 0.03 | 0.03 | 89 | 1012.5 |
| 20260505084547 | 38 | 0 | 0.0 | 0.9 | 0.02 | 0.03 | 0.03 | 88 | 1012.6 |
| 20260505084034 | 38 | 0 | 0.0 | 0.9 | 0.02 | 0.03 | 0.03 | 88 | 1012.6 |
| 20260505083532 | 38 | 19 | 0.0 | 0.9 | 0.02 | 0.03 | 0.03 | 89 | 1012.8 |
| 20260505083051 | 38 | 0 | 0.0 | 3.5 | 0.01 | 0.02 | 0.02 | 88 | 1012.9 |
| 20260505082533 | 38 | 0 | 0.9 | 3.5 | 0.01 | 0.02 | 0.02 | 87 | 1012.9 |
| 20260505082033 | 38 | 14 | 0.9 | 3.5 | 0.01 | 0.02 | 0.02 | 87 | 1012.9 |
| 20260505081551 | 39 | 36 | 0.9 | 2.6 | 0.01 | 0.02 | 0.02 | 87 | 1013.0 |
| 20260505081033 | 39 | 72 | 0.0 | 2.6 | 0.01 | 0.02 | 0.02 | 87 | 1013.2 |
| 20260505080530 | 39 | 0 | 0.9 | 2.6 | 0.01 | 0.02 | 0.02 | 86 | 1013.2 |
| 20260505080047 | 39 | 70 | 0.9 | 1.7 | 0.00 | 0.01 | 0.01 | 87 | 1013.3 |
| 20260505075532 | 39 | 67 | 0.9 | 1.7 | 0.01 | 0.01 | 0.01 | 87 | 1013.3 |
| 20260505075033 | 39 | 40 | 0.0 | 1.7 | 0.01 | 0.01 | 0.01 | 88 | 1013.4 |
| 20260505074545 | 39 | 77 | 0.0 | 0.9 | 0.01 | 0.01 | 0.01 | 88 | 1013.5 |
| 20260505074034 | 39 | 0 | 0.0 | 0.0 | 0.01 | 0.01 | 0.01 | 87 | 1013.4 |
| 20260505073532 | 39 | 0 | 0.0 | 0.0 | 0.01 | 0.01 | 0.01 | 87 | 1013.5 |
| 20260505073043 | 39 | 0 | 0.0 | 0.9 | 0.01 | 0.01 | 0.01 | 84 | 1013.5 |
| 20260505072536 | 39 | 0 | 0.0 | 0.9 | 0.01 | 0.01 | 0.01 | 84 | 1013.6 |
| 20260505072034 | 40 | 99 | 0.0 | 3.5 | 0.01 | 0.01 | 0.01 | 83 | 1013.6 |
| 20260505071541 | 40 | 102 | 0.0 | 5.2 | 0.01 | 0.01 | 0.01 | 82 | 1013.5 |
| 20260505071034 | 40 | 210 | 1.7 | 5.2 | 0.01 | 0.01 | 0.01 | 79 | 1013.5 |
| 20260505070534 | 41 | 113 | 0.0 | 7.8 | 0.01 | 0.01 | 0.01 | 80 | 1013.6 |
| 20260505070045 | 42 | 215 | 2.6 | 7.8 | 0.01 | 0.01 | 0.01 | 73 | 1013.5 |
| 20260505065535 | 43 | 127 | 0.9 | 4.3 | 0.00 | 0.00 | 0.00 | 72 | 1013.5 |
| 20260505065032 | 44 | 11 | 1.7 | 5.2 | 0.00 | 0.00 | 0.00 | 64 | 1013.3 |
| 20260505064540 | 44 | 264 | 0.9 | 7.0 | 0.00 | 0.00 | 0.00 | 57 | 1013.1 |
| 20260505064032 | 44 | 329 | 1.7 | 7.0 | 0.00 | 0.00 | 0.00 | 59 | 1013.1 |
| 20260505063533 | 45 | 39 | 0.0 | 2.6 | 0.00 | 0.00 | 0.00 | 56 | 1012.9 |
| 20260505063045 | 44 | 0 | 0.9 | 2.6 | 0.00 | 0.00 | 0.00 | 55 | 1012.9 |
| 20260505062532 | 44 | 238 | 0.0 | 2.6 | 0.00 | 0.00 | 0.00 | 57 | 1012.7 |
| 20260505062034 | 45 | 270 | 0.9 | 2.6 | 0.00 | 0.00 | 0.00 | 56 | 1012.6 |
| 20260505061542 | 45 | 239 | 0.0 | 0.9 | 0.00 | 0.00 | 0.00 | 56 | 1012.5 |
| 20260505061033 | 45 | 240 | 0.0 | 0.0 | 0.00 | 0.00 | 0.00 | 57 | 1012.4 |
| 20260505060533 | 45 | 0 | 0.0 | 0.9 | 0.00 | 0.00 | 0.00 | 57 | 1012.3 |
| 20260505060044 | 45 | 0 | 0.0 | 1.7 | 0.00 | 0.00 | 0.00 | 58 | 1012.2 |
| 20260505055533 | 45 | 240 | 0.0 | 1.7 | 0.00 | 0.00 | 0.00 | 58 | 1012.3 |
| 20260505055033 | 45 | 237 | 0.0 | 0.0 | 0.00 | 0.00 | 0.00 | 58 | 1012.2 |
| 20260505054549 | 45 | 0 | 0.0 | 2.6 | 0.00 | 0.00 | 0.00 | 57 | 1012.2 |
| 20260505054036 | 45 | 0 | 0.0 | 3.5 | 0.00 | 0.00 | 0.00 | 57 | 1012.1 |
| 20260505053533 | 46 | 0 | 0.9 | 3.5 | 0.00 | 0.00 | 0.00 | 55 | 1012.1 |
| 20260505053110 | 46 | 0 | 0.0 | 0.9 | 0.00 | 0.00 | 0.00 | 54 | 1012.0 |
| 20260505052532 | 46 | 0 | 0.0 | 0.9 | 0.00 | 0.00 | 0.00 | 54 | 1012.1 |
| 20260505052036 | 46 | 0 | 0.0 | 0.0 | 0.00 | 0.00 | 0.00 | 52 | 1012.1 |
| 20260505051543 | 47 | 0 | 0.0 | 0.9 | 0.00 | 0.00 | 0.00 | 51 | 1012.1 |
| 20260505051032 | 47 | 0 | 0.0 | 1.7 | 0.00 | 0.00 | 0.00 | 50 | 1011.9 |
| 20260505050532 | 47 | 0 | 0.0 | 4.3 | 0.00 | 0.00 | 0.00 | 49 | 1011.8 |
| 20260505041545 | 48 | 34 | 2.6 | 7.0 | 0.00 | 0.00 | 0.00 | 50 | 1011.3 |
| 20260505041035 | 48 | 155 | 2.6 | 9.6 | 0.00 | 0.00 | 0.00 | 50 | 1011.2 |
| 20260505040533 | 48 | 56 | 4.3 | 10.4 | 0.00 | 0.00 | 0.00 | 49 | 1011.2 |
| 20260505040049 | 47 | 108 | 3.5 | 10.4 | 0.00 | 0.00 | 0.00 | 49 | 1011.2 |
| 20260505035535 | 47 | 44 | 3.5 | 10.4 | 0.00 | 0.00 | 0.00 | 50 | 1011.1 |
| 20260505035032 | 48 | 75 | 4.3 | 11.3 | 0.00 | 0.00 | 0.00 | 50 | 1011.0 |
| 20260505034601 | 48 | 93 | 2.6 | 11.3 | 0.00 | 0.00 | 0.00 | 50 | 1011.0 |
| 20260505034036 | 48 | 58 | 3.5 | 8.7 | 0.00 | 0.00 | 0.00 | 50 | 1011.0 |
| 20260505033533 | 48 | 95 | 2.6 | 12.2 | 0.00 | 0.00 | 0.00 | 50 | 1010.9 |
| 20260505033050 | 48 | 22 | 2.6 | 12.2 | 0.00 | 0.00 | 0.00 | 50 | 1010.9 |
| 20260505032534 | 48 | 34 | 2.6 | 7.8 | 0.00 | 0.00 | 0.00 | 50 | 1010.9 |
| 20260505032033 | 49 | 21 | 2.6 | 9.6 | 0.00 | 0.00 | 0.00 | 50 | 1010.9 |
| 20260505031542 | 49 | 51 | 4.3 | 9.6 | 0.00 | 0.00 | 0.00 | 50 | 1010.9 |
| 20260505031037 | 49 | 30 | 6.1 | 10.4 | 0.00 | 0.00 | 0.00 | 49 | 1010.9 |
| 20260505030533 | 50 | 32 | 4.3 | 10.4 | 0.00 | 0.00 | 0.00 | 48 | 1010.9 |
| 20260505030043 | 50 | 25 | 1.7 | 7.8 | 0.00 | 0.00 | 0.00 | 46 | 1010.8 |
| 20260505025534 | 51 | 19 | 2.6 | 13.9 | 0.00 | 0.00 | 0.00 | 45 | 1010.7 |
| 20260505025033 | 51 | 84 | 4.3 | 13.9 | 0.00 | 0.00 | 0.00 | 43 | 1010.6 |
| 20260505024543 | 52 | 62 | 5.2 | 10.4 | 0.00 | 0.00 | 0.00 | 39 | 1010.4 |
| 20260505024033 | 52 | 14 | 5.2 | 10.4 | 0.00 | 0.00 | 0.00 | 38 | 1010.4 |
| 20260505023534 | 52 | 22 | 4.3 | 10.4 | 0.00 | 0.00 | 0.00 | 38 | 1010.4 |
| 20260505023047 | 52 | 32 | 2.6 | 7.0 | 0.00 | 0.00 | 0.00 | 38 | 1010.3 |
| 20260505022536 | 52 | 16 | 2.6 | 6.1 | 0.00 | 0.00 | 0.00 | 37 | 1010.3 |
| 20260505022033 | 52 | 18 | 2.6 | 7.8 | 0.00 | 0.00 | 0.00 | 38 | 1010.3 |
| 20260505021546 | 53 | 21 | 2.6 | 12.2 | 0.00 | 0.00 | 0.00 | 36 | 1010.2 |
| 20260505021034 | 54 | 62 | 4.3 | 12.2 | 0.00 | 0.00 | 0.00 | 36 | 1010.2 |
| 20260505020532 | 54 | 34 | 7.0 | 11.3 | 0.00 | 0.00 | 0.00 | 35 | 1010.2 |
| 20260505020047 | 54 | 18 | 2.6 | 6.1 | 0.00 | 0.00 | 0.00 | 35 | 1010.0 |
| 20260505015533 | 55 | 22 | 2.6 | 6.1 | 0.00 | 0.00 | 0.00 | 34 | 1009.9 |
| 20260505015033 | 56 | 25 | 3.5 | 7.0 | 0.00 | 0.00 | 0.00 | 33 | 1010.0 |
| 20260505014543 | 56 | 58 | 2.6 | 7.0 | 0.00 | 0.00 | 0.00 | 33 | 1009.8 |
| 20260505014034 | 57 | 32 | 3.5 | 7.0 | 0.00 | 0.00 | 0.00 | 32 | 1009.8 |
| 20260505013536 | 57 | 27 | 3.5 | 6.1 | 0.00 | 0.00 | 0.00 | 32 | 1009.8 |
| 20260505013045 | 57 | 25 | 3.5 | 8.7 | 0.00 | 0.00 | 0.00 | 31 | 1009.8 |
| 20260505012533 | 57 | 16 | 4.3 | 8.7 | 0.00 | 0.00 | 0.00 | 31 | 1009.9 |
| 20260505012035 | 57 | 18 | 3.5 | 7.8 | 0.00 | 0.00 | 0.00 | 32 | 1009.9 |
| 20260505011604 | 57 | 46 | 2.6 | 7.8 | 0.00 | 0.00 | 0.00 | 31 | 1009.8 |
| 20260505011036 | 57 | 40 | 3.5 | 7.8 | 0.00 | 0.00 | 0.00 | 31 | 1009.9 |
| 20260505010534 | 58 | 39 | 4.3 | 7.0 | 0.00 | 0.00 | 0.00 | 30 | 1010.0 |
| 20260505010048 | 58 | 48 | 4.3 | 7.0 | 0.00 | 0.00 | 0.00 | 30 | 1010.1 |
| 20260505005533 | 58 | 28 | 2.6 | 6.1 | 0.00 | 0.00 | 0.00 | 30 | 1010.0 |
| 20260505005035 | 58 | 1 | 5.2 | 6.1 | 0.00 | 0.00 | 0.00 | 30 | 1010.1 |
| 20260505004540 | 58 | 29 | 2.6 | 13.0 | 0.00 | 0.00 | 0.00 | 29 | 1010.0 |
| 20260505004033 | 58 | 27 | 4.3 | 13.0 | 0.00 | 0.00 | 0.00 | 29 | 1010.0 |
| 20260505003533 | 58 | 28 | 7.0 | 13.0 | 0.00 | 0.00 | 0.00 | 29 | 1010.2 |
| 20260505003044 | 58 | 6 | 5.2 | 12.2 | 0.00 | 0.00 | 0.00 | 32 | 1010.2 |
| 20260505002532 | 57 | 241 | 2.6 | 7.8 | 0.00 | 0.00 | 0.00 | 32 | 1010.0 |
| 20260505002032 | 57 | 324 | 4.3 | 7.8 | 0.00 | 0.00 | 0.00 | 33 | 1010.3 |
| 20260505001547 | 57 | 17 | 2.6 | 9.6 | 0.00 | 0.00 | 0.00 | 32 | 1010.3 |
| 20260505001031 | 57 | 337 | 3.5 | 9.6 | 0.00 | 0.00 | 0.00 | 32 | 1010.3 |
| 20260505000533 | 57 | 82 | 6.1 | 12.2 | 0.00 | 0.00 | 0.00 | 33 | 1010.4 |
| 20260505000100 | 56 | 30 | 6.1 | 12.2 | 0.00 | 0.00 | 0.00 | 37 | 1010.5 |
| 20260504235534 | 56 | 29 | 7.0 | 13.0 | 0.00 | 0.00 | 0.00 | 38 | 1010.7 |
| 20260504235033 | 57 | 52 | 5.2 | 14.8 | 0.00 | 0.00 | 0.00 | 38 | 1010.8 |
| 20260504234543 | 57 | 2 | 7.0 | 16.5 | 0.00 | 0.00 | 0.00 | 36 | 1010.7 |
| 20260504234034 | 58 | 12 | 7.0 | 16.5 | 0.00 | 0.00 | 0.00 | 35 | 1011.0 |
| 20260504233534 | 60 | 36 | 6.1 | 12.2 | 0.00 | 0.00 | 0.00 | 33 | 1010.6 |
| 20260504233057 | 60 | 252 | 3.5 | 12.2 | 0.00 | 0.00 | 0.00 | 30 | 1010.1 |
| 20260504232534 | 60 | 129 | 3.5 | 12.2 | 0.00 | 0.00 | 0.00 | 30 | 1010.1 |
| 20260504232034 | 60 | 280 | 3.5 | 13.9 | 0.00 | 0.00 | 0.00 | 30 | 1010.1 |
| 20260504231546 | 61 | 296 | 4.3 | 13.9 | 0.00 | 0.00 | 0.00 | 30 | 1010.0 |
| 20260504231033 | 61 | 288 | 2.6 | 13.9 | 0.00 | 0.00 | 0.00 | 29 | 1009.9 |
| 20260504230533 | 61 | 282 | 2.6 | 11.3 | 0.00 | 0.00 | 0.00 | 29 | 1009.8 |
| 20260504230044 | 60 | 216 | 2.6 | 11.3 | 0.00 | 0.00 | 0.00 | 29 | 1009.7 |
| 20260504225532 | 60 | 263 | 2.6 | 10.4 | 0.00 | 0.00 | 0.00 | 28 | 1009.8 |
| 20260504225033 | 61 | 267 | 2.6 | 9.6 | 0.00 | 0.00 | 0.00 | 28 | 1009.8 |
| 20260504224548 | 60 | 338 | 2.6 | 9.6 | 0.00 | 0.00 | 0.00 | 29 | 1010.0 |
| 20260504224033 | 60 | 279 | 2.6 | 9.6 | 0.00 | 0.00 | 0.00 | 30 | 1010.0 |
| 20260504223533 | 58 | 297 | 2.6 | 8.7 | 0.00 | 0.00 | 0.00 | 31 | 1009.9 |
| 20260504223048 | 57 | 221 | 1.7 | 5.2 | 0.00 | 0.00 | 0.00 | 31 | 1010.0 |
| 20260504222535 | 57 | 237 | 0.9 | 13.0 | 0.00 | 0.00 | 0.00 | 30 | 1010.2 |
| 20260504222033 | 57 | 229 | 5.2 | 13.0 | 0.00 | 0.00 | 0.00 | 30 | 1010.3 |
| 20260504221548 | 58 | 292 | 4.3 | 13.0 | 0.00 | 0.00 | 0.00 | 28 | 1010.4 |
| 20260504221034 | 59 | 155 | 1.7 | 9.6 | 0.00 | 0.00 | 0.00 | 26 | 1009.8 |
| 20260504220533 | 59 | 267 | 0.9 | 10.4 | 0.00 | 0.00 | 0.00 | 26 | 1009.9 |
| 20260504220049 | 59 | 131 | 0.9 | 10.4 | 0.00 | 0.00 | 0.00 | 26 | 1009.9 |
| 20260504215534 | 60 | 141 | 5.2 | 10.4 | 0.00 | 0.00 | 0.00 | 25 | 1010.0 |
| 20260504215034 | 60 | 257 | 1.7 | 7.0 | 0.00 | 0.00 | 0.00 | 25 | 1010.3 |
| 20260504214547 | 61 | 335 | 1.7 | 6.1 | 0.00 | 0.00 | 0.00 | 25 | 1010.2 |
| 20260504214033 | 62 | 39 | 0.9 | 8.7 | 0.00 | 0.00 | 0.00 | 24 | 1010.2 |
| 20260504213533 | 62 | 358 | 2.6 | 8.7 | 0.00 | 0.00 | 0.00 | 23 | 1010.1 |
| 20260504213051 | 63 | 326 | 1.7 | 8.7 | 0.00 | 0.00 | 0.00 | 21 | 1010.3 |
| 20260504212533 | 63 | 356 | 2.6 | 8.7 | 0.00 | 0.00 | 0.00 | 21 | 1010.6 |
| 20260504212033 | 63 | 289 | 1.7 | 9.6 | 0.00 | 0.00 | 0.00 | 23 | 1010.5 |
| 20260504211546 | 63 | 243 | 2.6 | 9.6 | 0.00 | 0.00 | 0.00 | 23 | 1010.6 |
| 20260504211034 | 62 | 324 | 2.6 | 7.8 | 0.00 | 0.00 | 0.00 | 25 | 1010.7 |
| 20260504210534 | 62 | 311 | 1.7 | 9.6 | 0.00 | 0.00 | 0.00 | 25 | 1010.8 |
| 20260504210059 | 60 | 326 | 3.5 | 9.6 | 0.00 | 0.00 | 0.00 | 26 | 1010.8 |
| 20260504205534 | 60 | 332 | 2.6 | 7.8 | 0.00 | 0.00 | 0.00 | 26 | 1011.1 |
| 20260504205103 | 59 | 20 | 1.7 | 12.2 | 0.00 | 0.00 | 0.00 | 28 | 1011.4 |
| 20260504204543 | 58 | 260 | 2.6 | 16.5 | 0.00 | 0.00 | 0.00 | 26 | 1011.5 |
| 20260504204034 | 58 | 335 | 1.7 | 16.5 | 0.00 | 0.00 | 0.00 | 28 | 1011.5 |
| 20260504203535 | 58 | 288 | 4.3 | 16.5 | 0.00 | 0.00 | 0.00 | 28 | 1011.9 |
| 20260504203048 | 59 | 212 | 3.5 | 10.4 | 0.00 | 0.00 | 0.00 | 27 | 1011.6 |
| 20260504202535 | 60 | 287 | 0.9 | 7.8 | 0.00 | 0.00 | 0.00 | 27 | 1011.5 |
| 20260504202036 | 59 | 239 | 1.7 | 7.8 | 0.00 | 0.00 | 0.00 | 27 | 1011.4 |
| 20260504201545 | 58 | 188 | 1.7 | 6.1 | 0.00 | 0.00 | 0.00 | 30 | 1011.4 |
| 20260504201033 | 58 | 231 | 2.6 | 6.1 | 0.00 | 0.00 | 0.00 | 28 | 1011.4 |
| 20260504200533 | 59 | 239 | 0.9 | 4.3 | 0.00 | 0.00 | 0.00 | 29 | 1011.4 |
| 20260504200049 | 59 | 335 | 1.7 | 10.4 | 0.00 | 0.00 | 0.00 | 29 | 1011.6 |
| 20260504195532 | 59 | 252 | 2.6 | 10.4 | 0.00 | 0.00 | 0.00 | 29 | 1011.5 |
| 20260504195035 | 59 | 203 | 1.7 | 8.7 | 0.00 | 0.00 | 0.00 | 29 | 1011.6 |
| 20260504194548 | 59 | 189 | 0.9 | 8.7 | 0.00 | 0.00 | 0.00 | 28 | 1011.6 |
| 20260504194033 | 59 | 314 | 3.5 | 10.4 | 0.00 | 0.00 | 0.00 | 30 | 1011.7 |
| 20260504193535 | 58 | 351 | 1.7 | 10.4 | 0.00 | 0.00 | 0.00 | 29 | 1011.7 |
| 20260504193050 | 58 | 225 | 2.6 | 11.3 | 0.00 | 0.00 | 0.00 | 30 | 1011.7 |
| 20260504192535 | 59 | 265 | 4.3 | 13.0 | 0.00 | 0.00 | 0.00 | 28 | 1011.8 |
| 20260504192033 | 60 | 243 | 4.3 | 13.0 | 0.00 | 0.00 | 0.00 | 28 | 1011.9 |
| 20260504191607 | 60 | 263 | 1.7 | 7.8 | 0.00 | 0.00 | 0.00 | 29 | 1011.7 |
| 20260504191034 | 60 | 295 | 1.7 | 7.8 | 0.00 | 0.00 | 0.00 | 27 | 1011.7 |
| 20260504190533 | 60 | 311 | 2.6 | 9.6 | 0.00 | 0.00 | 0.00 | 28 | 1011.7 |
| 20260504190049 | 59 | 0 | 4.3 | 12.2 | 0.00 | 0.00 | 0.00 | 26 | 1011.9 |
| 20260504185534 | 62 | 121 | 5.2 | 12.2 | 0.00 | 0.00 | 0.00 | 25 | 1012.0 |
| 20260504185034 | 63 | 274 | 3.5 | 10.4 | 0.00 | 0.00 | 0.00 | 27 | 1011.9 |
| 20260504184543 | 61 | 38 | 3.5 | 10.4 | 0.00 | 0.00 | 0.00 | 28 | 1011.8 |
| 20260504184034 | 60 | 307 | 2.6 | 12.2 | 0.00 | 0.00 | 0.00 | 29 | 1011.9 |
| 20260504183536 | 58 | 258 | 2.6 | 12.2 | 0.00 | 0.00 | 0.00 | 29 | 1012.0 |
| 20260504183045 | 57 | 342 | 5.2 | 12.2 | 0.00 | 0.00 | 0.00 | 31 | 1012.2 |
| 20260504182533 | 57 | 32 | 1.7 | 8.7 | 0.00 | 0.00 | 0.00 | 32 | 1012.1 |
| 20260504182033 | 58 | 314 | 1.7 | 9.6 | 0.00 | 0.00 | 0.00 | 32 | 1012.1 |
| 20260504181546 | 59 | 302 | 3.5 | 13.9 | 0.00 | 0.00 | 0.00 | 27 | 1012.0 |
| 20260504181034 | 60 | 319 | 3.5 | 13.9 | 0.00 | 0.00 | 0.00 | 26 | 1011.9 |
| 20260504180534 | 60 | 300 | 3.5 | 7.8 | 0.00 | 0.00 | 0.00 | 27 | 1011.9 |
| 20260504180051 | 61 | 316 | 1.7 | 8.7 | 0.00 | 0.00 | 0.00 | 26 | 1011.8 |
| 20260504175536 | 61 | 285 | 2.6 | 8.7 | 0.00 | 0.00 | 0.00 | 24 | 1012.0 |
| 20260504175035 | 61 | 229 | 2.6 | 8.7 | 0.00 | 0.00 | 0.00 | 24 | 1012.0 |
| 20260504174550 | 62 | 343 | 1.7 | 4.3 | 0.00 | 0.00 | 0.00 | 25 | 1012.0 |
| 20260504174033 | 61 | 17 | 0.9 | 4.3 | 0.00 | 0.00 | 0.00 | 27 | 1012.1 |
| 20260504173532 | 62 | 193 | 0.9 | 8.7 | 0.00 | 0.00 | 0.00 | 24 | 1012.2 |
| 20260504173040 | 61 | 277 | 1.7 | 8.7 | 0.00 | 0.00 | 0.00 | 27 | 1012.3 |
| 20260504172533 | 61 | 352 | 1.7 | 8.7 | 0.00 | 0.00 | 0.00 | 26 | 1012.3 |
| 20260504172033 | 61 | 236 | 2.6 | 5.2 | 0.00 | 0.00 | 0.00 | 27 | 1012.4 |
| 20260504171549 | 60 | 9 | 0.9 | 7.8 | 0.00 | 0.00 | 0.00 | 27 | 1012.4 |
| 20260504171033 | 60 | 150 | 1.7 | 7.8 | 0.00 | 0.00 | 0.00 | 26 | 1012.5 |
| 20260504170533 | 60 | 347 | 1.7 | 6.1 | 0.00 | 0.00 | 0.00 | 28 | 1012.5 |
| 20260504151035 | 57 | 254 | 0.9 | 1.7 | 0.00 | 0.00 | 0.00 | 30 | 1013.0 |
| 20260504150533 | 57 | 255 | 0.0 | 1.7 | 0.00 | 0.00 | 0.00 | 30 | 1013.1 |
| 20260504141032 | 50 | 236 | 0.9 | 1.7 | 0.00 | 0.00 | 0.00 | 38 | 1013.4 |
| 20260504140533 | 50 | 246 | 0.0 | 0.9 | 0.00 | 0.00 | 0.00 | 37 | 1013.4 |
| 20260504130534 | 41 | 282 | 0.9 | 1.7 | 0.00 | 0.00 | 0.00 | 46 | 1013.5 |